UAE703 UUDD-OMDB

Flight info

Callsign UAE703
Flight time N/A
Altitude 37000
Route TOGMO4Q TOGMO M56 DENUD/K0906F390 M161 URL M158 ATR/K0915F380 N60 GASBI/N0494F380 N60 BAKUV/N0491F390 N72 SAV P574 SYZ G666 ORSAR R784 TATLA L223 VUTEB
Aircraft A35K/H-SDE2E3GHIJ3J4J5LM1ORWXY/LB1D1

Departure

Time 2026-05-07 15:27
Airport Domodedovo International Airport (UUDD)

Arrival

Time N/A
Airport Dubai International Airport (OMDB)
Time Latitude Longitude Altitude Speed Heading
2026-05-07 14:53 55.41192 37.90183 576 ft 0 kts 273°
2026-05-07 15:14 55.41191 37.90198 577 ft 2 kts 274°
2026-05-07 15:14 55.41190 37.90220 585 ft 2 kts 278°
2026-05-07 15:14 55.41189 37.90233 579 ft 0 kts 281°
2026-05-07 15:15 55.41187 37.90255 581 ft 2 kts 281°
2026-05-07 15:15 55.41182 37.90283 581 ft 2 kts 296°
2026-05-07 15:15 55.41174 37.90308 576 ft 2 kts 302°
2026-05-07 15:15 55.41164 37.90332 578 ft 2 kts 306°
2026-05-07 15:16 55.41154 37.90355 577 ft 2 kts 313°
2026-05-07 15:16 55.41141 37.90374 574 ft 2 kts 332°
2026-05-07 15:16 55.41126 37.90386 576 ft 2 kts 336°
2026-05-07 15:16 55.41120 37.90390 574 ft 0 kts 334°
2026-05-07 15:18 55.41122 37.90389 580 ft 1 kts 333°
2026-05-07 15:19 55.41146 37.90354 580 ft 7 kts 310°
2026-05-07 15:19 55.41139 37.90251 576 ft 12 kts 242°
2026-05-07 15:19 55.41092 37.90124 579 ft 13 kts 236°
2026-05-07 15:19 55.41039 37.89987 580 ft 14 kts 236°
2026-05-07 15:20 55.40984 37.89847 579 ft 14 kts 236°
2026-05-07 15:20 55.40927 37.89697 582 ft 15 kts 235°
2026-05-07 15:20 55.40872 37.89564 579 ft 13 kts 227°
2026-05-07 15:20 55.40812 37.89438 583 ft 14 kts 234°
2026-05-07 15:21 55.40747 37.89297 578 ft 15 kts 217°
2026-05-07 15:21 55.40652 37.89331 579 ft 16 kts 144°
2026-05-07 15:21 55.40556 37.89448 578 ft 18 kts 142°
2026-05-07 15:21 55.40446 37.89578 573 ft 20 kts 146°
2026-05-07 15:22 55.40333 37.89711 573 ft 19 kts 145°
2026-05-07 15:22 55.40219 37.89850 570 ft 21 kts 145°
2026-05-07 15:22 55.40107 37.89985 568 ft 20 kts 146°
2026-05-07 15:22 55.39988 37.90128 568 ft 18 kts 146°
2026-05-07 15:23 55.39877 37.90261 564 ft 21 kts 146°
2026-05-07 15:23 55.39769 37.90390 564 ft 17 kts 146°
2026-05-07 15:23 55.39674 37.90504 555 ft 15 kts 146°
2026-05-07 15:23 55.39587 37.90477 550 ft 13 kts 217°
2026-05-07 15:24 55.39528 37.90344 548 ft 12 kts 240°
2026-05-07 15:24 55.39526 37.90326 548 ft 0 kts 263°
2026-05-07 15:24 55.39527 37.90322 548 ft 0 kts 276°
2026-05-07 15:24 55.39530 37.90312 548 ft 1 kts 294°
2026-05-07 15:25 55.39532 37.90310 548 ft 0 kts 309°
2026-05-07 15:25 55.39533 37.90309 548 ft 0 kts 315°
2026-05-07 15:25 55.39536 37.90307 548 ft 2 kts 325°
2026-05-07 15:25 55.39539 37.90304 548 ft 0 kts 326°
2026-05-07 15:26 55.39539 37.90303 548 ft 1 kts 326°
2026-05-07 15:26 55.39680 37.90134 551 ft 57 kts 326°
2026-05-07 15:26 55.40187 37.89527 573 ft 117 kts 325°
2026-05-07 15:27 55.40996 37.88537 622 ft 164 kts 324°
2026-05-07 15:27 55.41944 37.87325 1114 ft 174 kts 321°
2026-05-07 15:27 55.42866 37.85773 1667 ft 188 kts 311°
2026-05-07 15:27 55.43756 37.84031 2360 ft 194 kts 308°
2026-05-07 15:28 55.44639 37.82254 3013 ft 196 kts 307°
2026-05-07 15:28 55.45529 37.80352 3432 ft 204 kts 302°
2026-05-07 15:28 55.46072 37.78069 3982 ft 204 kts 276°
2026-05-07 15:28 55.45854 37.75553 4375 ft 220 kts 246°
2026-05-07 15:29 55.45027 37.73191 4870 ft 230 kts 237°
2026-05-07 15:29 55.44067 37.70902 5496 ft 233 kts 234°
2026-05-07 15:29 55.42855 37.68987 6163 ft 238 kts 213°
2026-05-07 15:29 55.41278 37.68137 6783 ft 248 kts 188°
2026-05-07 15:30 55.39494 37.68751 7119 ft 273 kts 158°
2026-05-07 15:30 55.37875 37.70544 7636 ft 282 kts 150°
2026-05-07 15:30 55.36272 37.72566 8283 ft 284 kts 149°
2026-05-07 15:30 55.34655 37.74599 8945 ft 287 kts 149°
2026-05-07 15:31 55.33018 37.76632 9635 ft 288 kts 149°
2026-05-07 15:31 55.31375 37.78667 10277 ft 290 kts 150°
2026-05-07 15:31 55.29712 37.80705 10855 ft 293 kts 150°
2026-05-07 15:31 55.28039 37.82696 11444 ft 295 kts 153°
2026-05-07 15:32 55.26181 37.84145 12041 ft 291 kts 167°
2026-05-07 15:32 55.24222 37.85092 12671 ft 293 kts 170°
2026-05-07 15:32 55.22233 37.85963 13291 ft 295 kts 171°
2026-05-07 15:32 55.20227 37.86824 13898 ft 298 kts 171°
2026-05-07 15:33 55.18203 37.87698 14443 ft 302 kts 171°
2026-05-07 15:33 55.16153 37.88591 14979 ft 305 kts 170°
2026-05-07 15:33 55.14780 37.89193 15348 ft 308 kts 170°
2026-05-07 15:33 55.12691 37.90113 15907 ft 311 kts 170°
2026-05-07 15:34 55.10559 37.90856 16439 ft 311 kts 179°
2026-05-07 15:34 55.08398 37.90749 16986 ft 311 kts 189°
2026-05-07 15:34 55.06239 37.90300 17537 ft 314 kts 191°
2026-05-07 15:34 55.04061 37.89809 18093 ft 318 kts 190°
2026-05-07 15:35 55.01852 37.89848 18536 ft 328 kts 173°
2026-05-07 15:35 54.99696 37.91282 18942 ft 341 kts 151°
2026-05-07 15:35 54.97924 37.94190 19130 ft 360 kts 130°
2026-05-07 15:35 54.96476 37.97844 19382 ft 371 kts 126°
2026-05-07 15:36 54.95066 38.01647 19791 ft 376 kts 125°
2026-05-07 15:36 54.93639 38.05470 20234 ft 378 kts 126°
2026-05-07 15:36 54.92183 38.09310 20696 ft 381 kts 126°
2026-05-07 15:36 54.90710 38.13164 21149 ft 384 kts 126°
2026-05-07 15:37 54.89434 38.17268 21575 ft 389 kts 116°
2026-05-07 15:37 54.88404 38.21630 22054 ft 391 kts 113°
2026-05-07 15:37 54.87417 38.26051 22525 ft 394 kts 112°
2026-05-07 15:37 54.86426 38.30505 22971 ft 396 kts 112°
2026-05-07 15:38 54.85416 38.34966 23420 ft 399 kts 114°
2026-05-07 15:38 54.84224 38.39248 23793 ft 400 kts 119°
2026-05-07 15:38 54.82880 38.43498 24158 ft 402 kts 121°
2026-05-07 15:38 54.81504 38.47733 24532 ft 405 kts 121°
2026-05-07 15:39 54.80115 38.51994 24905 ft 407 kts 121°
2026-05-07 15:39 54.78719 38.56277 25297 ft 409 kts 121°
2026-05-07 15:39 54.77223 38.60479 25662 ft 410 kts 127°
2026-05-07 15:39 54.75344 38.64198 26013 ft 411 kts 139°
2026-05-07 15:40 54.73054 38.67223 26183 ft 417 kts 149°
2026-05-07 15:40 54.70555 38.69871 26355 ft 425 kts 151°
2026-05-07 15:40 54.67979 38.72494 26514 ft 433 kts 151°
2026-05-07 15:40 54.65397 38.75127 26671 ft 441 kts 151°
2026-05-07 15:41 54.62740 38.77852 26828 ft 448 kts 150°
2026-05-07 15:41 54.60038 38.80641 26977 ft 456 kts 150°
2026-05-07 15:41 54.57298 38.83477 27155 ft 463 kts 150°
2026-05-07 15:41 54.54514 38.86359 27311 ft 470 kts 150°
2026-05-07 15:42 54.51680 38.89288 27464 ft 477 kts 150°
2026-05-07 15:42 54.48823 38.92238 27703 ft 482 kts 150°
2026-05-07 15:42 54.45933 38.95218 28015 ft 485 kts 150°
2026-05-07 15:42 54.43036 38.98201 28348 ft 487 kts 150°
2026-05-07 15:43 54.40151 39.01167 28687 ft 490 kts 150°
2026-05-07 15:43 54.37215 39.04181 29039 ft 492 kts 150°
2026-05-07 15:43 54.34277 39.07233 29357 ft 495 kts 148°
2026-05-07 15:43 54.31470 39.10675 29688 ft 497 kts 141°
2026-05-07 15:44 54.28924 39.14689 30030 ft 500 kts 133°
2026-05-07 15:44 54.26778 39.19383 30327 ft 502 kts 122°
2026-05-07 15:44 54.25158 39.24667 30625 ft 504 kts 112°
2026-05-07 15:44 54.23997 39.30340 30978 ft 503 kts 106°
2026-05-07 15:45 54.23182 39.36082 31419 ft 502 kts 100°
2026-05-07 15:45 54.22678 39.41975 31831 ft 500 kts 95°
2026-05-07 15:45 54.22501 39.47897 32252 ft 499 kts 89°
2026-05-07 15:45 54.22648 39.53813 32653 ft 497 kts 84°
2026-05-07 15:46 54.23901 39.65376 33469 ft 494 kts 73°
2026-05-07 15:46 54.24991 39.70927 33890 ft 492 kts 67°
2026-05-07 15:46 54.26278 39.76341 34229 ft 491 kts 68°
2026-05-07 15:47 54.27246 39.81945 34518 ft 493 kts 78°
2026-05-07 15:47 54.27573 39.87762 34782 ft 495 kts 90°
2026-05-07 15:47 54.27131 39.93616 35060 ft 496 kts 104°
2026-05-07 15:47 54.25887 39.99107 35341 ft 495 kts 119°
2026-05-07 15:48 54.24037 40.04061 35664 ft 494 kts 126°
2026-05-07 15:48 54.21926 40.08678 35944 ft 493 kts 136°
2026-05-07 15:48 54.19306 40.12460 36206 ft 492 kts 145°
2026-05-07 15:48 54.16490 40.15749 36511 ft 491 kts 147°
2026-05-07 15:49 54.13757 40.19239 36806 ft 491 kts 141°
2026-05-07 15:49 54.11350 40.23400 36895 ft 496 kts 129°
2026-05-07 15:49 54.09446 40.28301 36920 ft 497 kts 118°
2026-05-07 15:50 54.06880 40.39154 36901 ft 498 kts 108°
2026-05-07 15:50 54.05003 40.50513 36916 ft 499 kts 105°
2026-05-07 15:51 54.03171 40.61915 36916 ft 498 kts 106°
2026-05-07 15:51 54.01234 40.73227 36908 ft 498 kts 107°
2026-05-07 15:52 53.99228 40.84499 36907 ft 498 kts 107°
2026-05-07 15:52 53.97197 40.95770 36920 ft 498 kts 107°
2026-05-07 15:53 53.95179 41.06953 36910 ft 498 kts 107°
2026-05-07 15:53 53.93299 41.18261 36904 ft 497 kts 105°
2026-05-07 15:54 53.91478 41.29600 36918 ft 497 kts 105°
2026-05-07 15:54 53.89631 41.40913 36919 ft 497 kts 105°
2026-05-07 15:55 53.87756 41.52186 36917 ft 497 kts 106°
2026-05-07 15:55 53.85874 41.63384 36920 ft 496 kts 106°
2026-05-07 15:56 53.83969 41.74642 36919 ft 496 kts 106°
2026-05-07 15:56 53.82061 41.85859 36914 ft 496 kts 106°
2026-05-07 15:57 53.80129 41.97065 36916 ft 496 kts 106°
2026-05-07 15:57 53.78187 42.08261 36916 ft 496 kts 107°
2026-05-07 15:58 53.76251 42.19371 36920 ft 496 kts 107°
2026-05-07 15:58 53.74294 42.30534 36920 ft 496 kts 107°
2026-05-07 15:59 53.72324 42.41707 36918 ft 496 kts 107°
2026-05-07 15:59 53.70342 42.52879 36921 ft 496 kts 107°
2026-05-07 16:00 53.68363 42.63963 36916 ft 496 kts 107°
2026-05-07 16:00 53.66429 42.75122 36920 ft 496 kts 105°
2026-05-07 16:01 53.64692 42.86368 36917 ft 495 kts 104°
2026-05-07 16:01 53.62968 42.97625 36912 ft 495 kts 104°
2026-05-07 16:02 53.61215 43.08786 36920 ft 495 kts 105°
2026-05-07 16:02 53.59413 43.20050 36927 ft 495 kts 105°
2026-05-07 16:03 53.57616 43.31171 36917 ft 495 kts 105°
2026-05-07 16:03 53.55803 43.42330 36920 ft 495 kts 105°
2026-05-07 16:04 53.53978 43.53495 36920 ft 494 kts 105°
2026-05-07 16:04 53.52146 43.64629 36925 ft 494 kts 105°
2026-05-07 16:05 53.50302 43.75769 36928 ft 494 kts 105°
2026-05-07 16:05 53.48457 43.86842 36935 ft 494 kts 105°
2026-05-07 16:06 53.46598 43.97939 36937 ft 494 kts 105°
2026-05-07 16:06 53.44724 44.09036 36939 ft 494 kts 106°
2026-05-07 16:07 53.42841 44.20116 36937 ft 493 kts 106°
2026-05-07 16:07 53.40950 44.31179 36945 ft 493 kts 106°
2026-05-07 16:08 53.39048 44.42235 36945 ft 493 kts 106°
2026-05-07 16:08 53.37150 44.53202 36948 ft 493 kts 106°
2026-05-07 16:09 53.35234 44.64233 36951 ft 493 kts 106°
2026-05-07 16:09 53.33301 44.75245 36939 ft 493 kts 106°
2026-05-07 16:10 53.31357 44.86252 36949 ft 493 kts 106°
2026-05-07 16:10 53.29404 44.97252 36955 ft 493 kts 107°
2026-05-07 16:11 53.27444 45.08228 36942 ft 493 kts 107°
2026-05-07 16:11 53.25210 45.19078 36947 ft 493 kts 110°
2026-05-07 16:12 53.22797 45.29727 36962 ft 493 kts 110°
2026-05-07 16:12 53.20386 45.40450 36964 ft 493 kts 110°
2026-05-07 16:13 53.18011 45.51181 36953 ft 493 kts 110°
2026-05-07 16:13 53.15644 45.61910 36947 ft 493 kts 110°
2026-05-07 16:14 53.13270 45.72626 36963 ft 493 kts 110°
2026-05-07 16:14 53.10884 45.83328 36954 ft 493 kts 110°
2026-05-07 16:15 53.08504 45.94024 36947 ft 493 kts 110°
2026-05-07 16:15 53.06147 46.04637 36950 ft 493 kts 110°
2026-05-07 16:16 53.03761 46.15328 36956 ft 493 kts 110°
2026-05-07 16:16 53.01367 46.25982 36950 ft 492 kts 110°
2026-05-07 16:17 52.98961 46.36628 36951 ft 492 kts 110°
2026-05-07 16:17 52.96546 46.47262 36955 ft 492 kts 110°
2026-05-07 16:18 52.94123 46.57891 36949 ft 492 kts 110°
2026-05-07 16:18 52.91688 46.68498 36947 ft 492 kts 110°
2026-05-07 16:19 52.89246 46.79087 36950 ft 492 kts 110°
2026-05-07 16:19 52.86799 46.89648 36946 ft 491 kts 111°
2026-05-07 16:20 52.84341 47.00206 36945 ft 491 kts 111°
2026-05-07 16:20 52.81880 47.10728 36947 ft 491 kts 111°
2026-05-07 16:21 52.79522 47.21323 36941 ft 491 kts 109°
2026-05-07 16:21 52.77311 47.31913 36945 ft 491 kts 109°
2026-05-07 16:22 52.75067 47.42565 36933 ft 491 kts 109°
2026-05-07 16:22 52.72791 47.53173 36938 ft 491 kts 109°
2026-05-07 16:23 52.70884 47.61989 36933 ft 490 kts 109°
2026-05-07 16:23 52.68586 47.72589 36932 ft 491 kts 109°
2026-05-07 16:24 52.66278 47.83180 36930 ft 491 kts 109°
2026-05-07 16:24 52.63964 47.93746 36930 ft 491 kts 109°
2026-05-07 16:25 52.61639 48.04316 36930 ft 491 kts 109°
2026-05-07 16:25 52.59309 48.14868 36928 ft 491 kts 109°
2026-05-07 16:26 52.56958 48.25411 36923 ft 490 kts 110°
2026-05-07 16:26 52.54600 48.35915 36921 ft 490 kts 110°
2026-05-07 16:27 52.52234 48.46416 36919 ft 490 kts 110°
2026-05-07 16:27 52.49876 48.56834 36916 ft 490 kts 110°
2026-05-07 16:28 52.47496 48.67299 36915 ft 489 kts 110°
2026-05-07 16:28 52.45107 48.77756 36914 ft 490 kts 110°
2026-05-07 16:29 52.42708 48.88200 36915 ft 490 kts 110°
2026-05-07 16:29 52.40301 48.98629 36915 ft 489 kts 110°
2026-05-07 16:30 52.37886 49.09043 36916 ft 489 kts 111°
2026-05-07 16:30 52.35462 49.19449 36910 ft 489 kts 111°
2026-05-07 16:31 52.33019 49.29834 36913 ft 489 kts 111°
2026-05-07 16:31 52.30584 49.40128 36913 ft 489 kts 111°
2026-05-07 16:32 52.28131 49.50487 36906 ft 489 kts 111°
2026-05-07 16:32 52.25669 49.60828 36906 ft 489 kts 111°
2026-05-07 16:33 52.23194 49.71160 36905 ft 489 kts 111°
2026-05-07 16:33 52.20716 49.81470 36898 ft 488 kts 111°
2026-05-07 16:34 52.18227 49.91777 36903 ft 488 kts 111°
2026-05-07 16:34 52.15730 50.02070 36893 ft 488 kts 111°
2026-05-07 16:35 52.13224 50.12355 36896 ft 488 kts 112°
2026-05-07 16:35 52.10714 50.22604 36899 ft 488 kts 112°
2026-05-07 16:36 52.08195 50.32841 36892 ft 487 kts 112°
2026-05-07 16:36 52.05668 50.43063 36891 ft 487 kts 112°
2026-05-07 16:37 52.03136 50.53263 36891 ft 487 kts 112°
2026-05-07 16:37 52.00609 50.63393 36893 ft 487 kts 112°
2026-05-07 16:38 51.97975 50.73517 36889 ft 487 kts 117°
2026-05-07 16:38 51.94119 50.82476 36888 ft 486 kts 134°
2026-05-07 16:39 51.88694 50.88968 36892 ft 487 kts 153°
2026-05-07 16:39 51.82296 50.92563 36890 ft 487 kts 164°
2026-05-07 16:40 51.75718 50.95281 36893 ft 488 kts 166°
2026-05-07 16:40 51.69159 50.98120 36887 ft 488 kts 160°
2026-05-07 16:41 51.63113 51.03040 36889 ft 488 kts 148°
2026-05-07 16:41 51.57412 51.08977 36886 ft 488 kts 146°
2026-05-07 16:42 51.51821 51.15022 36892 ft 488 kts 146°
2026-05-07 16:42 51.46165 51.21072 36884 ft 488 kts 146°
2026-05-07 16:43 51.40518 51.27076 36875 ft 488 kts 146°
2026-05-07 16:43 51.34852 51.33142 36873 ft 488 kts 146°
2026-05-07 16:44 51.29224 51.39152 36864 ft 488 kts 146°
2026-05-07 16:44 51.23542 51.45192 36854 ft 488 kts 146°
2026-05-07 16:45 51.17794 51.50961 36860 ft 488 kts 152°
2026-05-07 16:45 51.11427 51.54408 36855 ft 489 kts 170°
2026-05-07 16:46 51.04640 51.55316 36858 ft 489 kts 177°
2026-05-07 16:46 50.97833 51.55662 36863 ft 490 kts 178°
2026-05-07 16:47 50.91019 51.55992 36866 ft 489 kts 178°
2026-05-07 16:47 50.84213 51.56398 36874 ft 489 kts 177°
2026-05-07 16:48 50.77442 51.56841 36874 ft 489 kts 177°
2026-05-07 16:48 50.70641 51.57292 36877 ft 489 kts 177°
2026-05-07 16:49 50.63841 51.57739 36877 ft 489 kts 177°
2026-05-07 16:49 50.57055 51.58183 36871 ft 489 kts 177°
2026-05-07 16:50 50.50259 51.58624 36872 ft 488 kts 177°
2026-05-07 16:50 50.43471 51.59063 36871 ft 488 kts 177°
2026-05-07 16:51 50.36688 51.59515 36874 ft 487 kts 177°
2026-05-07 16:51 50.29916 51.59985 36873 ft 487 kts 177°
2026-05-07 16:52 50.23142 51.60454 36875 ft 487 kts 177°
2026-05-07 16:52 50.16414 51.60915 36873 ft 486 kts 177°
2026-05-07 16:53 50.09648 51.61376 36868 ft 486 kts 177°
2026-05-07 16:53 50.02895 51.61834 36869 ft 486 kts 177°
2026-05-07 16:54 49.96152 51.62291 36872 ft 485 kts 177°
2026-05-07 16:54 49.89398 51.62747 36866 ft 485 kts 178°
2026-05-07 16:55 49.82660 51.63201 36868 ft 485 kts 178°
2026-05-07 16:55 49.75915 51.63654 36864 ft 485 kts 178°
2026-05-07 16:56 49.69223 51.64102 36863 ft 484 kts 178°
2026-05-07 16:56 49.59135 51.64775 36860 ft 483 kts 178°
2026-05-07 16:57 49.52424 51.65221 36866 ft 483 kts 178°
2026-05-07 16:57 49.45709 51.65666 36864 ft 482 kts 178°
2026-05-07 16:58 49.39003 51.66110 36867 ft 482 kts 178°
2026-05-07 16:58 49.32311 51.66551 36863 ft 481 kts 178°
2026-05-07 16:59 49.25617 51.66991 36863 ft 481 kts 178°
2026-05-07 16:59 49.18982 51.67427 36860 ft 480 kts 178°
2026-05-07 17:00 49.12308 51.67863 36859 ft 480 kts 178°
2026-05-07 17:00 49.05638 51.68299 36859 ft 479 kts 178°
2026-05-07 17:01 48.98976 51.68733 36862 ft 479 kts 178°
2026-05-07 17:01 48.92324 51.69163 36871 ft 478 kts 178°
2026-05-07 17:02 48.85680 51.69590 36857 ft 477 kts 178°
2026-05-07 17:02 48.79040 51.70016 36855 ft 477 kts 178°
2026-05-07 17:03 48.72410 51.70441 36849 ft 477 kts 178°
2026-05-07 17:03 48.65833 51.70861 36853 ft 476 kts 178°
2026-05-07 17:04 48.59209 51.71283 36846 ft 476 kts 178°
2026-05-07 17:04 48.52590 51.71704 36842 ft 476 kts 178°
2026-05-07 17:05 48.45974 51.72124 36843 ft 476 kts 178°
2026-05-07 17:05 48.39353 51.72543 36840 ft 476 kts 178°
2026-05-07 17:06 48.32738 51.72960 36836 ft 475 kts 178°
2026-05-07 17:06 48.26128 51.73376 36840 ft 475 kts 178°
2026-05-07 17:07 48.19529 51.73790 36834 ft 475 kts 178°
2026-05-07 17:07 48.12958 51.74202 36833 ft 475 kts 178°
2026-05-07 17:08 48.06321 51.74616 36828 ft 474 kts 179°
2026-05-07 17:08 47.99755 51.75025 36825 ft 475 kts 179°
2026-05-07 17:09 47.93153 51.75435 36831 ft 475 kts 179°
2026-05-07 17:09 47.86540 51.75845 36833 ft 475 kts 179°
2026-05-07 17:10 47.79946 51.76255 36821 ft 474 kts 179°
2026-05-07 17:10 47.73341 51.76647 36822 ft 474 kts 179°
2026-05-07 17:11 47.67856 51.76973 36819 ft 474 kts 179°
2026-05-07 17:11 47.61267 51.77366 36815 ft 474 kts 179°
2026-05-07 17:12 47.54673 51.77760 36823 ft 474 kts 179°
2026-05-07 17:12 47.48122 51.78151 36819 ft 473 kts 179°
2026-05-07 17:13 47.41539 51.78543 36830 ft 473 kts 179°
2026-05-07 17:13 47.34964 51.78933 36827 ft 472 kts 179°
2026-05-07 17:14 47.28396 51.79323 36827 ft 472 kts 179°
2026-05-07 17:14 47.21843 51.79710 36823 ft 471 kts 179°
2026-05-07 17:15 47.15292 51.79988 36834 ft 470 kts 183°
2026-05-07 17:15 47.08802 51.78970 36820 ft 469 kts 189°
2026-05-07 17:16 47.02347 51.77533 36819 ft 469 kts 189°
2026-05-07 17:16 46.95909 51.76043 36836 ft 468 kts 189°
2026-05-07 17:17 46.89461 51.74580 36837 ft 469 kts 189°
2026-05-07 17:17 46.83011 51.73142 36830 ft 469 kts 189°
2026-05-07 17:18 46.76582 51.71720 36832 ft 470 kts 189°
2026-05-07 17:18 46.70118 51.70292 36853 ft 470 kts 189°
2026-05-07 17:19 46.63642 51.68865 36853 ft 470 kts 189°
2026-05-07 17:19 46.57165 51.67440 36852 ft 470 kts 189°
2026-05-07 17:20 46.50686 51.66018 36860 ft 471 kts 189°
2026-05-07 17:20 46.44241 51.64607 36859 ft 471 kts 189°
2026-05-07 17:21 46.37754 51.63185 36859 ft 472 kts 189°
2026-05-07 17:21 46.31268 51.61755 36871 ft 472 kts 189°
2026-05-07 17:22 46.24778 51.60327 36873 ft 472 kts 189°
2026-05-07 17:22 46.18282 51.58904 36875 ft 472 kts 189°
2026-05-07 17:23 46.11790 51.57486 36883 ft 471 kts 189°
2026-05-07 17:23 46.05303 51.56072 36888 ft 471 kts 190°
2026-05-07 17:24 45.98848 51.54677 36893 ft 475 kts 190°
2026-05-07 17:24 45.92228 51.53241 36891 ft 483 kts 191°
2026-05-07 17:25 45.85587 51.51799 36895 ft 482 kts 190°
2026-05-07 17:25 45.78962 51.50368 36898 ft 481 kts 191°
2026-05-07 17:26 45.72356 51.48945 36906 ft 480 kts 191°
2026-05-07 17:26 45.65756 51.47528 36908 ft 480 kts 191°
2026-05-07 17:27 45.59152 51.46114 36911 ft 479 kts 191°
2026-05-07 17:27 45.52565 51.44707 36916 ft 479 kts 191°
2026-05-07 17:28 45.45977 51.43304 36925 ft 478 kts 191°
2026-05-07 17:28 45.39397 51.41905 36928 ft 478 kts 191°
2026-05-07 17:29 45.32820 51.40511 36932 ft 477 kts 191°
2026-05-07 17:29 45.26259 51.39123 36936 ft 477 kts 191°
2026-05-07 17:30 45.19742 51.37748 36941 ft 476 kts 191°
2026-05-07 17:30 45.13187 51.36368 36945 ft 476 kts 191°
2026-05-07 17:31 45.06637 51.34992 36948 ft 475 kts 191°
2026-05-07 17:31 45.00098 51.33622 36948 ft 475 kts 191°
2026-05-07 17:32 44.93559 51.32254 36954 ft 475 kts 191°
2026-05-07 17:32 44.87021 51.30891 36958 ft 475 kts 191°
2026-05-07 17:33 44.80478 51.29529 36963 ft 474 kts 191°
2026-05-07 17:33 44.73972 51.28036 36970 ft 473 kts 193°
2026-05-07 17:34 44.67506 51.26356 36975 ft 472 kts 193°
2026-05-07 17:34 44.61087 51.24691 36978 ft 472 kts 193°
2026-05-07 17:35 44.54629 51.23059 36987 ft 471 kts 193°
2026-05-07 17:35 44.48176 51.21451 36993 ft 470 kts 193°
2026-05-07 17:36 44.41734 51.19852 36999 ft 470 kts 193°
2026-05-07 17:36 44.35298 51.18257 37006 ft 470 kts 193°
2026-05-07 17:37 44.28854 51.16662 37008 ft 470 kts 193°
2026-05-07 17:37 44.22423 51.15074 37012 ft 470 kts 193°
2026-05-07 17:38 44.15985 51.13488 37017 ft 469 kts 193°
2026-05-07 17:38 44.09556 51.11907 37017 ft 469 kts 193°
2026-05-07 17:39 44.03131 51.10331 37014 ft 468 kts 193°
2026-05-07 17:39 43.96758 51.08771 37011 ft 468 kts 193°
2026-05-07 17:40 43.90351 51.07206 37023 ft 467 kts 193°
2026-05-07 17:40 43.84056 51.05103 37021 ft 464 kts 199°
2026-05-07 17:41 43.77864 51.02534 37025 ft 463 kts 200°
2026-05-07 17:41 43.71704 50.99900 37022 ft 463 kts 200°
2026-05-07 17:42 43.65554 50.97284 37018 ft 462 kts 200°
2026-05-07 17:42 43.59410 50.94691 37030 ft 461 kts 200°
2026-05-07 17:43 43.53303 50.92127 37036 ft 461 kts 200°
2026-05-07 17:43 43.47166 50.89556 37044 ft 460 kts 200°
2026-05-07 17:44 43.41044 50.86997 37040 ft 460 kts 200°
2026-05-07 17:44 43.34926 50.84444 37051 ft 459 kts 200°
2026-05-07 17:45 43.28819 50.81901 37056 ft 458 kts 200°
2026-05-07 17:45 43.22727 50.79370 37056 ft 457 kts 200°
2026-05-07 17:46 43.16697 50.76870 37061 ft 456 kts 200°
2026-05-07 17:46 43.10631 50.74359 37065 ft 455 kts 200°
2026-05-07 17:47 43.04580 50.71860 37074 ft 454 kts 200°
2026-05-07 17:47 42.98524 50.69364 37081 ft 454 kts 200°
2026-05-07 17:48 42.92474 50.66876 37079 ft 454 kts 200°
2026-05-07 17:48 42.86428 50.64395 37083 ft 453 kts 200°
2026-05-07 17:49 42.80394 50.61924 37082 ft 453 kts 200°
2026-05-07 17:49 42.74365 50.59460 37082 ft 452 kts 200°
2026-05-07 17:50 42.68337 50.57001 37084 ft 452 kts 200°
2026-05-07 17:50 42.62321 50.54551 37084 ft 451 kts 200°
2026-05-07 17:51 42.56306 50.52108 37088 ft 451 kts 200°
2026-05-07 17:51 42.50337 50.49688 37089 ft 450 kts 200°
2026-05-07 17:52 42.44313 50.47329 37089 ft 452 kts 197°
2026-05-07 17:52 42.38083 50.45874 37096 ft 454 kts 193°
2026-05-07 17:53 42.31818 50.44698 37095 ft 454 kts 192°
2026-05-07 17:53 42.25550 50.43563 37097 ft 454 kts 192°
2026-05-07 17:54 42.19291 50.42412 37094 ft 454 kts 193°
2026-05-07 17:54 42.13038 50.41249 37097 ft 453 kts 193°
2026-05-07 17:55 42.06833 50.40092 37099 ft 453 kts 193°
2026-05-07 17:55 42.00598 50.38932 37102 ft 452 kts 193°
2026-05-07 17:56 41.94372 50.37779 37099 ft 452 kts 193°
2026-05-07 17:56 41.88152 50.36614 37100 ft 451 kts 193°
2026-05-07 17:57 41.82948 50.35626 37100 ft 450 kts 193°
2026-05-07 17:57 41.75744 50.34263 37106 ft 450 kts 193°
2026-05-07 17:58 41.69543 50.33099 37106 ft 449 kts 193°
2026-05-07 17:58 41.63357 50.31940 37109 ft 449 kts 193°
2026-05-07 17:59 41.58214 50.30979 37111 ft 448 kts 193°
2026-05-07 17:59 41.52040 50.29826 37107 ft 448 kts 193°
2026-05-07 18:00 41.45873 50.28677 37141 ft 448 kts 193°
2026-05-07 18:00 41.42777 50.28101 37413 ft 448 kts 193°
2026-05-07 18:00 41.39692 50.27527 37759 ft 447 kts 193°
2026-05-07 18:01 41.36612 50.26956 38073 ft 446 kts 193°
2026-05-07 18:01 41.33531 50.26384 38370 ft 446 kts 193°
2026-05-07 18:01 41.30451 50.25813 38619 ft 447 kts 193°
2026-05-07 18:01 41.27373 50.25243 38872 ft 447 kts 193°
2026-05-07 18:02 41.21203 50.24101 39108 ft 448 kts 193°
2026-05-07 18:02 41.18158 50.23539 39118 ft 447 kts 193°
2026-05-07 18:03 41.11995 50.22404 39113 ft 447 kts 193°
2026-05-07 18:03 41.05893 50.20957 39120 ft 444 kts 197°
2026-05-07 18:04 40.99859 50.19213 39114 ft 444 kts 197°
2026-05-07 18:04 40.93819 50.17495 39112 ft 444 kts 197°
2026-05-07 18:05 40.87756 50.15843 39112 ft 445 kts 196°
2026-05-07 18:05 40.81716 50.14231 39113 ft 445 kts 196°
2026-05-07 18:06 40.75633 50.12614 39111 ft 445 kts 196°
2026-05-07 18:06 40.69558 50.10999 39103 ft 446 kts 196°
2026-05-07 18:07 40.63477 50.09383 39103 ft 446 kts 196°
2026-05-07 18:07 40.57395 50.07771 39098 ft 446 kts 196°
2026-05-07 18:08 40.51320 50.06163 39102 ft 445 kts 196°
2026-05-07 18:08 40.45139 50.05445 39100 ft 455 kts 184°
2026-05-07 18:09 40.38810 50.06054 39102 ft 457 kts 181°
2026-05-07 18:09 40.32478 50.06930 39102 ft 457 kts 180°
2026-05-07 18:10 40.26163 50.07810 39104 ft 456 kts 181°
2026-05-07 18:10 40.19856 50.08648 39115 ft 455 kts 181°
2026-05-07 18:11 40.13555 50.09462 39119 ft 455 kts 181°
2026-05-07 18:11 40.07301 50.10266 39125 ft 454 kts 181°
2026-05-07 18:12 40.01007 50.11076 39126 ft 454 kts 181°
2026-05-07 18:12 39.94711 50.11885 39133 ft 454 kts 181°
2026-05-07 18:13 39.88419 50.12692 39135 ft 454 kts 181°
2026-05-07 18:13 39.82132 50.13498 39130 ft 454 kts 181°
2026-05-07 18:14 39.75890 50.14179 39125 ft 451 kts 184°
2026-05-07 18:14 39.69632 50.14528 39127 ft 449 kts 185°
2026-05-07 18:15 39.63380 50.14827 39126 ft 449 kts 185°
2026-05-07 18:15 39.57135 50.15180 39127 ft 449 kts 185°
2026-05-07 18:16 39.50899 50.15567 39129 ft 449 kts 185°
2026-05-07 18:16 39.44652 50.15964 39127 ft 449 kts 185°
2026-05-07 18:17 39.38418 50.16359 39129 ft 448 kts 185°
2026-05-07 18:17 39.32184 50.16751 39123 ft 448 kts 185°
2026-05-07 18:18 39.25959 50.17141 39126 ft 448 kts 185°
2026-05-07 18:18 39.19742 50.17529 39127 ft 447 kts 185°
2026-05-07 18:19 39.13563 50.17915 39127 ft 447 kts 185°
2026-05-07 18:19 39.07354 50.18301 39129 ft 446 kts 185°
2026-05-07 18:20 39.01151 50.18686 39124 ft 446 kts 185°
2026-05-07 18:20 38.94947 50.19071 39126 ft 446 kts 185°
2026-05-07 18:21 38.88752 50.19454 39123 ft 445 kts 185°
2026-05-07 18:21 38.82560 50.19837 39123 ft 445 kts 185°
2026-05-07 18:22 38.76371 50.20219 39121 ft 445 kts 185°
2026-05-07 18:22 38.70221 50.20597 39121 ft 445 kts 185°
2026-05-07 18:23 38.64038 50.20978 39121 ft 444 kts 185°
2026-05-07 18:23 38.57860 50.21358 39118 ft 444 kts 185°
2026-05-07 18:24 38.51689 50.21737 39117 ft 444 kts 185°
2026-05-07 18:24 38.45514 50.22114 39120 ft 444 kts 185°
2026-05-07 18:25 38.39387 50.22488 39119 ft 443 kts 185°
2026-05-07 18:25 38.33232 50.22864 39117 ft 443 kts 185°
2026-05-07 18:26 38.27078 50.23238 39119 ft 443 kts 185°
2026-05-07 18:26 38.20908 50.23613 39118 ft 443 kts 185°
2026-05-07 18:27 38.14747 50.23988 39114 ft 443 kts 185°
2026-05-07 18:27 38.08575 50.24374 39118 ft 443 kts 185°
2026-05-07 18:28 38.02412 50.24761 39116 ft 443 kts 186°
2026-05-07 18:28 37.96253 50.25146 39110 ft 443 kts 186°
2026-05-07 18:29 37.90092 50.25533 39112 ft 443 kts 186°
2026-05-07 18:29 37.83939 50.25918 39111 ft 443 kts 186°
2026-05-07 18:30 37.77791 50.26297 39111 ft 442 kts 186°
2026-05-07 18:30 37.71645 50.26677 39115 ft 442 kts 186°
2026-05-07 18:31 37.65534 50.27055 39104 ft 442 kts 186°
2026-05-07 18:31 37.59391 50.27435 39108 ft 441 kts 186°
2026-05-07 18:32 37.53245 50.27814 39108 ft 441 kts 186°
2026-05-07 18:32 37.47152 50.28190 39105 ft 441 kts 186°
2026-05-07 18:33 37.41022 50.28567 39105 ft 441 kts 186°
2026-05-07 18:33 37.34896 50.28943 39104 ft 441 kts 186°
2026-05-07 18:34 37.28768 50.29319 39104 ft 441 kts 186°
2026-05-07 18:34 37.22645 50.29695 39109 ft 440 kts 186°
2026-05-07 18:35 37.16520 50.30069 39103 ft 440 kts 186°
2026-05-07 18:35 37.10395 50.30442 39105 ft 440 kts 186°
2026-05-07 18:36 37.04278 50.30815 39098 ft 439 kts 186°
2026-05-07 18:36 36.98222 50.31100 39093 ft 438 kts 187°
2026-05-07 18:37 36.92143 50.31325 39093 ft 436 kts 187°
2026-05-07 18:37 36.86080 50.31558 39087 ft 436 kts 187°
2026-05-07 18:38 36.80013 50.31814 39079 ft 436 kts 187°
2026-05-07 18:38 36.73950 50.32067 39106 ft 437 kts 187°
2026-05-07 18:39 36.67886 50.32328 39065 ft 435 kts 187°
2026-05-07 18:39 36.61816 50.32567 39070 ft 436 kts 187°
2026-05-07 18:40 36.55761 50.32809 39077 ft 435 kts 187°
2026-05-07 18:40 36.49727 50.33050 39058 ft 434 kts 188°
2026-05-07 18:41 36.43691 50.33295 39052 ft 434 kts 187°
2026-05-07 18:41 36.37709 50.33537 39063 ft 431 kts 187°
2026-05-07 18:42 36.31718 50.33796 39063 ft 430 kts 187°
2026-05-07 18:42 36.25723 50.34036 39058 ft 430 kts 188°
2026-05-07 18:43 36.19738 50.34190 39057 ft 430 kts 188°
2026-05-07 18:43 36.13754 50.34318 39053 ft 430 kts 188°
2026-05-07 18:44 36.07772 50.34458 39049 ft 430 kts 188°
2026-05-07 18:44 36.01797 50.34610 39040 ft 429 kts 188°
2026-05-07 18:45 35.95824 50.34766 39033 ft 429 kts 188°
2026-05-07 18:45 35.89836 50.34926 39032 ft 429 kts 188°
2026-05-07 18:46 35.83872 50.35075 39027 ft 429 kts 188°
2026-05-07 18:46 35.78917 50.35198 39030 ft 428 kts 188°
2026-05-07 18:47 35.72959 50.35347 39028 ft 428 kts 188°
2026-05-07 18:47 35.66044 50.35526 39029 ft 428 kts 188°
2026-05-07 18:48 35.61065 50.35660 39031 ft 427 kts 188°
2026-05-07 18:48 35.55123 50.35798 39034 ft 426 kts 188°
2026-05-07 18:49 35.49188 50.35942 39033 ft 426 kts 188°
2026-05-07 18:49 35.43256 50.36091 39036 ft 426 kts 188°
2026-05-07 18:50 35.37356 50.36239 39037 ft 427 kts 188°
2026-05-07 18:50 35.31399 50.36389 39040 ft 428 kts 188°
2026-05-07 18:51 35.25433 50.36541 39038 ft 429 kts 188°
2026-05-07 18:51 35.19457 50.36694 39039 ft 430 kts 188°
2026-05-07 18:52 35.13469 50.36848 39032 ft 431 kts 188°
2026-05-07 18:52 35.07459 50.37004 39042 ft 432 kts 188°
2026-05-07 18:53 35.01407 50.37632 39039 ft 446 kts 179°
2026-05-07 18:53 34.95341 50.39805 39038 ft 458 kts 172°
2026-05-07 18:54 34.89322 50.42422 39037 ft 460 kts 171°
2026-05-07 18:54 34.83311 50.45085 39033 ft 460 kts 171°
2026-05-07 18:55 34.77283 50.47707 39039 ft 460 kts 171°
2026-05-07 18:55 34.71276 50.50287 39045 ft 460 kts 172°
2026-05-07 18:56 34.65227 50.52871 39045 ft 461 kts 172°
2026-05-07 18:56 34.59170 50.55464 39048 ft 462 kts 172°
2026-05-07 18:57 34.53101 50.58057 39060 ft 463 kts 172°
2026-05-07 18:57 34.47023 50.60650 39064 ft 464 kts 171°
2026-05-07 18:58 34.40925 50.63249 39076 ft 464 kts 172°
2026-05-07 18:58 34.34860 50.65830 39084 ft 465 kts 172°
2026-05-07 18:59 34.28758 50.68422 39092 ft 465 kts 172°
2026-05-07 18:59 34.22643 50.71006 39104 ft 465 kts 171°
2026-05-07 19:00 34.16538 50.73607 39117 ft 466 kts 172°
2026-05-07 19:00 34.10421 50.76211 39127 ft 466 kts 172°
2026-05-07 19:01 34.04290 50.78805 39140 ft 467 kts 172°
2026-05-07 19:01 33.98150 50.81391 39141 ft 468 kts 172°
2026-05-07 19:02 33.92030 50.83955 39149 ft 469 kts 172°
2026-05-07 19:02 33.85622 50.86642 39157 ft 469 kts 172°
2026-05-07 19:03 33.79454 50.89221 39162 ft 470 kts 172°
2026-05-07 19:03 33.73263 50.91808 39171 ft 471 kts 172°
2026-05-07 19:04 33.67084 50.94391 39182 ft 472 kts 172°
2026-05-07 19:04 33.60861 50.96991 39187 ft 472 kts 172°
2026-05-07 19:05 33.54654 50.99580 39195 ft 472 kts 172°
2026-05-07 19:05 33.48484 51.02150 39196 ft 472 kts 173°
2026-05-07 19:06 33.42284 51.04735 39201 ft 472 kts 173°
2026-05-07 19:06 33.32976 51.08586 39200 ft 471 kts 173°
2026-05-07 19:07 33.26782 51.11147 39197 ft 471 kts 173°
2026-05-07 19:07 33.20588 51.13705 39196 ft 471 kts 173°
2026-05-07 19:08 33.14396 51.16259 39196 ft 471 kts 173°
2026-05-07 19:08 33.08187 51.18817 39198 ft 472 kts 173°
2026-05-07 19:09 33.01973 51.21373 39193 ft 472 kts 173°
2026-05-07 19:09 32.95795 51.23915 39193 ft 472 kts 173°
2026-05-07 19:10 32.89574 51.26467 39188 ft 473 kts 173°
2026-05-07 19:10 32.83337 51.29020 39196 ft 474 kts 173°
2026-05-07 19:11 32.77105 51.31569 39200 ft 475 kts 173°
2026-05-07 19:11 32.70864 51.34124 39180 ft 474 kts 173°
2026-05-07 19:12 32.64618 51.36675 39179 ft 474 kts 173°
2026-05-07 19:12 32.58418 51.39200 39178 ft 474 kts 173°
2026-05-07 19:13 32.52172 51.41740 39178 ft 474 kts 173°
2026-05-07 19:13 32.45930 51.44274 39179 ft 474 kts 173°
2026-05-07 19:14 32.39682 51.46809 39179 ft 474 kts 173°
2026-05-07 19:14 32.33434 51.49339 39181 ft 474 kts 173°
2026-05-07 19:15 32.27192 51.51862 39188 ft 473 kts 173°
2026-05-07 19:15 32.21001 51.54361 39190 ft 473 kts 173°
2026-05-07 19:16 32.14770 51.56873 39192 ft 473 kts 173°
2026-05-07 19:16 32.08541 51.59380 39200 ft 473 kts 173°
2026-05-07 19:17 32.02305 51.61887 39205 ft 473 kts 173°
2026-05-07 19:17 31.96081 51.64393 39217 ft 473 kts 173°
2026-05-07 19:18 31.89856 51.66921 39219 ft 473 kts 174°
2026-05-07 19:18 31.83669 51.69388 39221 ft 471 kts 174°
2026-05-07 19:19 31.77457 51.71872 39226 ft 471 kts 174°
2026-05-07 19:19 31.71237 51.74339 39232 ft 471 kts 174°
2026-05-07 19:20 31.65037 51.76803 39241 ft 470 kts 174°
2026-05-07 19:20 31.58835 51.79279 39245 ft 470 kts 174°
2026-05-07 19:21 31.52643 51.81745 39245 ft 470 kts 174°
2026-05-07 19:21 31.46441 51.84224 39241 ft 470 kts 174°
2026-05-07 19:22 31.40256 51.86673 39244 ft 469 kts 174°
2026-05-07 19:22 31.34121 51.89103 39245 ft 468 kts 174°
2026-05-07 19:23 31.27944 51.91545 39246 ft 468 kts 173°
2026-05-07 19:23 31.21777 51.93980 39245 ft 468 kts 173°
2026-05-07 19:24 31.16600 51.96023 39246 ft 468 kts 173°
2026-05-07 19:24 31.10467 51.98442 39243 ft 468 kts 173°
2026-05-07 19:25 31.04308 52.00866 39245 ft 468 kts 173°
2026-05-07 19:25 30.98121 52.03298 39243 ft 468 kts 173°
2026-05-07 19:26 30.91942 52.05726 39243 ft 470 kts 173°
2026-05-07 19:26 30.85742 52.08159 39241 ft 470 kts 173°
2026-05-07 19:27 30.79555 52.10580 39234 ft 469 kts 173°
2026-05-07 19:27 30.73374 52.12994 39234 ft 469 kts 173°
2026-05-07 19:28 30.67167 52.15419 39228 ft 470 kts 173°
2026-05-07 19:28 30.60956 52.17840 39232 ft 471 kts 173°
2026-05-07 19:29 30.54740 52.20256 39221 ft 471 kts 173°
2026-05-07 19:29 30.48516 52.22663 39212 ft 471 kts 173°
2026-05-07 19:30 30.42363 52.25048 39220 ft 468 kts 173°
2026-05-07 19:30 30.36153 52.27444 39206 ft 472 kts 173°
2026-05-07 19:31 30.29902 52.29848 39196 ft 473 kts 173°
2026-05-07 19:31 30.23643 52.32259 39195 ft 474 kts 172°
2026-05-07 19:32 30.17371 52.34674 39184 ft 475 kts 172°
2026-05-07 19:32 30.11082 52.37097 39174 ft 476 kts 172°
2026-05-07 19:33 30.04791 52.39510 39175 ft 477 kts 172°
2026-05-07 19:33 29.98525 52.41908 39169 ft 477 kts 172°
2026-05-07 19:34 29.92222 52.44320 39161 ft 478 kts 172°
2026-05-07 19:34 29.85897 52.46739 39164 ft 479 kts 172°
2026-05-07 19:35 29.79573 52.49160 39158 ft 479 kts 172°
2026-05-07 19:35 29.73235 52.51578 39167 ft 478 kts 172°
2026-05-07 19:36 29.66905 52.53983 39173 ft 479 kts 172°
2026-05-07 19:36 29.60615 52.56369 39175 ft 478 kts 172°
2026-05-07 19:37 29.54290 52.58771 39171 ft 478 kts 172°
2026-05-07 19:37 29.47938 52.60879 39175 ft 472 kts 175°
2026-05-07 19:38 29.41546 52.62590 39170 ft 470 kts 176°
2026-05-07 19:38 29.35163 52.64281 39165 ft 471 kts 176°
2026-05-07 19:39 29.28788 52.66045 39153 ft 472 kts 175°
2026-05-07 19:39 29.22406 52.67852 39136 ft 472 kts 175°
2026-05-07 19:40 29.16076 52.69651 39122 ft 472 kts 175°
2026-05-07 19:40 29.09707 52.71457 39116 ft 471 kts 175°
2026-05-07 19:41 29.03346 52.73260 39110 ft 470 kts 175°
2026-05-07 19:41 28.96986 52.75052 39104 ft 470 kts 175°
2026-05-07 19:42 28.90629 52.76841 39089 ft 471 kts 175°
2026-05-07 19:42 28.84274 52.78628 39084 ft 471 kts 175°
2026-05-07 19:43 28.77894 52.80419 39071 ft 471 kts 174°
2026-05-07 19:43 28.71528 52.82197 39056 ft 471 kts 174°
2026-05-07 19:44 28.65160 52.83995 39045 ft 471 kts 174°
2026-05-07 19:44 28.58831 52.85772 39035 ft 472 kts 174°
2026-05-07 19:45 28.52444 52.87555 39016 ft 471 kts 174°
2026-05-07 19:45 28.46068 52.89330 38996 ft 472 kts 174°
2026-05-07 19:46 28.39678 52.91114 38979 ft 472 kts 174°
2026-05-07 19:46 28.33292 52.92862 38977 ft 473 kts 175°
2026-05-07 19:47 28.26893 52.94569 38966 ft 472 kts 175°
2026-05-07 19:47 28.20521 52.96260 38951 ft 473 kts 175°
2026-05-07 19:48 28.14120 52.97968 38947 ft 473 kts 174°
2026-05-07 19:48 28.07706 52.99683 38939 ft 473 kts 174°
2026-05-07 19:49 28.01293 53.01398 38932 ft 473 kts 174°
2026-05-07 19:49 27.94880 53.03112 38932 ft 474 kts 174°
2026-05-07 19:50 27.88463 53.04823 38926 ft 474 kts 174°
2026-05-07 19:50 27.82048 53.06530 38921 ft 474 kts 174°
2026-05-07 19:51 27.75614 53.08241 38918 ft 475 kts 174°
2026-05-07 19:51 27.69181 53.09951 38908 ft 475 kts 174°
2026-05-07 19:52 27.62750 53.11657 38898 ft 475 kts 174°
2026-05-07 19:52 27.56309 53.13364 38893 ft 475 kts 174°
2026-05-07 19:53 27.49914 53.15057 38891 ft 475 kts 174°
2026-05-07 19:53 27.43475 53.16761 38881 ft 476 kts 174°
2026-05-07 19:54 27.37020 53.18465 38873 ft 476 kts 174°
2026-05-07 19:54 27.30582 53.20336 38859 ft 479 kts 171°
2026-05-07 19:55 27.24156 53.22375 38849 ft 480 kts 171°
2026-05-07 19:55 27.17720 53.24402 38833 ft 479 kts 171°
2026-05-07 19:56 27.11291 53.26390 38825 ft 479 kts 171°
2026-05-07 19:56 27.04858 53.28360 38821 ft 479 kts 171°
2026-05-07 19:57 26.98430 53.30324 38816 ft 479 kts 171°
2026-05-07 19:57 26.92035 53.32278 38813 ft 479 kts 171°
2026-05-07 19:58 26.85606 53.34263 38802 ft 480 kts 169°
2026-05-07 19:58 26.79464 53.37433 38802 ft 496 kts 153°
2026-05-07 19:59 26.73964 53.42182 38800 ft 502 kts 147°
2026-05-07 19:59 26.68641 53.47258 38798 ft 503 kts 145°
2026-05-07 20:00 26.63331 53.52359 38800 ft 503 kts 146°
2026-05-07 20:00 26.57994 53.57412 38800 ft 502 kts 146°
2026-05-07 20:01 26.52419 53.62026 38795 ft 497 kts 151°
2026-05-07 20:01 26.46740 53.66349 38696 ft 493 kts 152°
2026-05-07 20:02 26.43859 53.68514 37963 ft 494 kts 152°
2026-05-07 20:02 26.41029 53.70632 37013 ft 500 kts 152°
2026-05-07 20:02 26.38127 53.72802 36122 ft 505 kts 152°
2026-05-07 20:02 26.35206 53.74992 35339 ft 507 kts 152°
2026-05-07 20:03 26.32274 53.77199 34580 ft 509 kts 151°
2026-05-07 20:03 26.29323 53.79420 33751 ft 512 kts 151°
2026-05-07 20:03 26.26359 53.81651 32847 ft 515 kts 151°
2026-05-07 20:03 26.23384 53.83889 31982 ft 517 kts 151°
2026-05-07 20:04 26.20399 53.86133 31112 ft 519 kts 150°
2026-05-07 20:04 26.17402 53.88383 30207 ft 521 kts 150°
2026-05-07 20:04 26.14383 53.90649 29176 ft 524 kts 150°
2026-05-07 20:04 26.11364 53.92915 28414 ft 521 kts 149°
2026-05-07 20:05 26.08572 53.95464 27748 ft 521 kts 138°
2026-05-07 20:05 26.06300 53.98604 27073 ft 521 kts 126°
2026-05-07 20:05 26.04413 54.02029 26392 ft 518 kts 122°
2026-05-07 20:05 26.02693 54.05498 25727 ft 501 kts 120°
2026-05-07 20:06 26.01124 54.08849 25080 ft 476 kts 119°
2026-05-07 20:06 25.99659 54.12052 24469 ft 454 kts 118°
2026-05-07 20:06 25.98224 54.15185 23844 ft 455 kts 119°
2026-05-07 20:06 25.96796 54.18265 23212 ft 453 kts 119°
2026-05-07 20:07 25.95372 54.21306 22568 ft 437 kts 120°
2026-05-07 20:07 25.93950 54.24306 21955 ft 439 kts 120°
2026-05-07 20:07 25.92549 54.27291 21376 ft 429 kts 117°
2026-05-07 20:07 25.91403 54.30321 20825 ft 425 kts 114°
2026-05-07 20:08 25.90346 54.33391 20255 ft 425 kts 112°
2026-05-07 20:08 25.89357 54.36428 19678 ft 409 kts 111°
2026-05-07 20:08 25.88416 54.39419 19096 ft 412 kts 111°
2026-05-07 20:08 25.87482 54.42415 18537 ft 409 kts 111°
2026-05-07 20:09 25.86578 54.45334 17974 ft 396 kts 110°
2026-05-07 20:09 25.85981 54.47256 17561 ft 398 kts 110°
2026-05-07 20:09 25.85071 54.50167 16963 ft 398 kts 110°
2026-05-07 20:10 25.83263 54.55926 15822 ft 392 kts 110°
2026-05-07 20:10 25.82365 54.58770 15252 ft 389 kts 110°
2026-05-07 20:10 25.81469 54.61595 14682 ft 386 kts 110°
2026-05-07 20:10 25.80557 54.64386 14122 ft 385 kts 112°
2026-05-07 20:11 25.79270 54.66940 13894 ft 378 kts 126°
2026-05-07 20:11 25.77576 54.69090 13790 ft 362 kts 134°
2026-05-07 20:11 25.75828 54.71020 13695 ft 347 kts 135°
2026-05-07 20:11 25.74122 54.72838 13588 ft 334 kts 136°
2026-05-07 20:12 25.72475 54.74577 13477 ft 321 kts 136°
2026-05-07 20:12 25.70887 54.76249 13355 ft 308 kts 136°
2026-05-07 20:12 25.69359 54.77854 13240 ft 297 kts 136°
2026-05-07 20:12 25.67889 54.79397 13125 ft 286 kts 136°
2026-05-07 20:13 25.66472 54.80884 13010 ft 277 kts 136°
2026-05-07 20:13 25.65080 54.82344 12754 ft 274 kts 136°
2026-05-07 20:13 25.63695 54.83796 12473 ft 273 kts 136°
2026-05-07 20:13 25.62320 54.85238 12201 ft 271 kts 136°
2026-05-07 20:14 25.61116 54.86850 12025 ft 275 kts 121°
2026-05-07 20:14 25.60253 54.88766 12003 ft 280 kts 114°
2026-05-07 20:14 25.59479 54.90751 12002 ft 281 kts 113°
2026-05-07 20:14 25.58715 54.92744 11995 ft 281 kts 113°
2026-05-07 20:15 25.57953 54.94727 11679 ft 279 kts 113°
2026-05-07 20:15 25.57194 54.96701 11321 ft 279 kts 113°
2026-05-07 20:15 25.56435 54.98679 10971 ft 278 kts 113°
2026-05-07 20:15 25.55811 55.00699 10602 ft 278 kts 106°
2026-05-07 20:16 25.55212 55.02741 10140 ft 282 kts 114°
2026-05-07 20:16 25.54293 55.04707 9491 ft 293 kts 119°
2026-05-07 20:16 25.53258 55.06663 8996 ft 295 kts 120°
2026-05-07 20:16 25.52204 55.08612 8561 ft 295 kts 121°
2026-05-07 20:17 25.51148 55.10560 8182 ft 293 kts 121°
2026-05-07 20:17 25.50112 55.12470 8024 ft 293 kts 121°
2026-05-07 20:17 25.49059 55.14410 8002 ft 294 kts 121°
2026-05-07 20:17 25.48003 55.16356 8001 ft 294 kts 121°
2026-05-07 20:18 25.46904 55.18261 7993 ft 294 kts 130°
2026-05-07 20:18 25.45470 55.19891 8174 ft 297 kts 136°
2026-05-07 20:18 25.44082 55.21583 8042 ft 296 kts 130°
2026-05-07 20:18 25.42762 55.23323 8003 ft 295 kts 130°
2026-05-07 20:19 25.41443 55.25067 7998 ft 291 kts 130°
2026-05-07 20:19 25.40182 55.26727 8004 ft 274 kts 130°
2026-05-07 20:19 25.38991 55.28290 8007 ft 257 kts 130°
2026-05-07 20:19 25.37874 55.29750 8009 ft 249 kts 130°
2026-05-07 20:20 25.36713 55.31268 8000 ft 266 kts 130°
2026-05-07 20:20 25.35546 55.32889 7994 ft 271 kts 126°
2026-05-07 20:20 25.34510 55.34640 7998 ft 272 kts 122°
2026-05-07 20:20 25.33518 55.36417 8001 ft 272 kts 122°
2026-05-07 20:21 25.32532 55.38202 7984 ft 271 kts 122°
2026-05-07 20:21 25.31563 55.39965 7679 ft 268 kts 122°
2026-05-07 20:21 25.30587 55.41737 7290 ft 270 kts 122°
2026-05-07 20:21 25.29608 55.43506 6975 ft 269 kts 122°
2026-05-07 20:22 25.28627 55.45271 6849 ft 269 kts 122°
2026-05-07 20:22 25.27647 55.47034 6709 ft 269 kts 122°
2026-05-07 20:22 25.26668 55.48796 6575 ft 269 kts 122°
2026-05-07 20:22 25.25692 55.50555 6436 ft 268 kts 122°
2026-05-07 20:23 25.24716 55.52308 6309 ft 268 kts 122°
2026-05-07 20:23 25.23743 55.54059 6161 ft 267 kts 122°
2026-05-07 20:23 25.22774 55.55810 6017 ft 266 kts 122°
2026-05-07 20:23 25.21822 55.57525 5874 ft 257 kts 122°
2026-05-07 20:24 25.20908 55.59175 5738 ft 247 kts 122°
2026-05-07 20:24 25.20024 55.60769 5602 ft 238 kts 122°
2026-05-07 20:24 25.19175 55.62303 5463 ft 230 kts 122°
2026-05-07 20:24 25.18369 55.63747 5331 ft 221 kts 123°
2026-05-07 20:25 25.17558 55.65193 5197 ft 221 kts 123°
2026-05-07 20:25 25.16750 55.66633 5059 ft 220 kts 123°
2026-05-07 20:25 25.15947 55.68070 4921 ft 220 kts 123°
2026-05-07 20:25 25.15148 55.69506 4767 ft 219 kts 123°
2026-05-07 20:26 25.14348 55.70938 4631 ft 219 kts 123°